Tracking 35275 objects as of 9-Sep-2026
HD Live streaming from Space Station
objects crossing your sky now

DMSP 5D-2 F13 DEB


DMSP 5D-2 F13 DEB is no longer on orbit


NORAD ID: 42328
Int'l Code: 1995-015JW
Launch date: March 24, 1995
Source: United States (US)
Launch site: AIR FORCE WESTERN TEST RANGE (AFWTR)
Decay date: 2025-04-22

Note: This is SATELLITE DEBRIS
Your satellite tracking list
Your tracking list is empty




NASA's NSSDC Master Catalog

Two Line Element Set (TLE):
1 42328U 95015JW  25104.03233670  .02565912  00000-0  36656-1 0  9992
2 42328  98.7778 138.0537 0014606 224.2453 135.7629 15.52791595492066
Source of the keplerian elements: AFSPC